Hourly Data Report for February 09, 2021

TORONTO CITY
ONTARIO
Current Station Operator: ECCC - MSC

43°40'00.000" N
79°24'00.000" W
112.50 m
6158355
71508
XTO

Download Data

Hourly Data (February 2021)
Hourly Data Report for February 9, 2021
TIME
LST
Temp Definition
°C
Dew Point Definition
°C
Rel Hum Definition
%
Precip. Amount Definition
mm

Wind Dir Definition
10's deg

Wind Spd Definition
km/h
Visibility Definition
km
Stn Press Definition
kPa
Hmdx Definition


Wind Chill Definition


Weather Definition


00:00 -8.6 -11.5 79 0.1       101.21     LegendNANA
01:00 -8.6 -12.0 76 0.0       101.14     LegendNANA
02:00 -8.4 -11.4 79 0.0       101.13     LegendNANA
03:00 -8.6 -11.4 80 0.1       101.11     LegendNANA
04:00 -8.5 -11.1 81 0.2       101.04     LegendNANA
05:00 -8.3 -11.3 79 0.0       101.01     LegendNANA
06:00 -7.9 -11.5 75 0.0       101.03     LegendNANA
07:00 -8.1 -11.3 78 0.0       101.02     LegendNANA
08:00 -8.2 -11.3 78 0.0       101.01     LegendNANA
09:00 -7.4 -11.6 72 0.0       101.07     LegendNANA
10:00 -6.3 -12.0 64 0.0       101.05     LegendNANA
11:00 -4.9 -13.2 52 0.0       101.06     LegendNANA
12:00 -3.8 -12.8 50 0.0       101.04     LegendNANA
13:00 -3.0 -13.4 45 0.0       100.96     LegendNANA
14:00 -3.4 -12.9 48 0.0       100.93     LegendNANA
15:00 -2.9 -12.5 48 0.0       100.90     LegendNANA
16:00 -3.1 -12.8 47 0.0       100.92     LegendNANA
17:00 -2.7 -12.2 48 0.0       100.96     LegendNANA
18:00 -3.7 -11.7 54 0.0       101.00     LegendNANA
19:00 -4.5 -12.7 53 0.0       101.03     LegendNANA
20:00 -5.2 -11.8 60 0.0       101.06     LegendNANA
21:00 -5.9 -12.0 63 0.0       101.13     LegendNANA
22:00 -6.7 -13.6 58 0.0       101.20     LegendNANA
23:00 -7.4 -13.8 60 0.0       101.22     LegendNANA

Notes on Data Quality.

Legend

  • E = Estimated
  • M = Missing
  • NA = Not Available*
  • [empty] = Indicates an unobserved value
Date modified: